FLOCK 2P-1

Last updated on Wed Feb 14 2018 16:19:52 GMT+0000 (Coordinated Universal Time)

1 41617U 16040U 18044.89058806 .00000783 00000-0 35399-4 0 9992 2 41617 97.4334 110.9556 0009195 321.9882 38.0705 15.23859773 91468
UTC large
Height (km)
Speed (km/s)
/
Latitude / Longitude
Inclination (degrees)
Orbital Period (minutes)
Azimuth
Elevation
Range (km)
Doppler Factor

Next 0 passes for location: London (51.5072 / 0.1276)

Sorry there are no passes over London.